Location: Kellogg
(38.0159°N, 90.0546°W)
Time: 15:12:06
(UTC+00:00)

Altair - Pass Details

Date: 21 September 2024
Orbit: 1501 x 1682 km, 47.2° (Epoch: 15 October)

Event Time Altitude Azimuth Distance (km) Brightness Sun altitude
Exits shadow 11:13:50 - 295° (WNW) 4,779 9.6 -7.5°
Reaches altitude 10° 11:16:39 10° 299° (WNW) 3,932 9.2 -6.9°
Maximum altitude 11:26:41 61° 18° (NNE) 1,873 8.1 -5.0°
Drops below altitude 10° 11:36:41 10° 98° (E) 3,919 11.5 -3.0°
Sets 11:39:53 0° 102° (ESE) 4,891 12.1 -2.4°
